Regional Weather Roundup
Issued by NWS Burlington, VT

Home | Current Version | Previous Version | Text Only | Print | Product List | Glossary On
Versions: 1 2 3 4 5 6 7 8 9 10 11 12 13 14 15 16 17 18 19 20 21 22 23 24 25 26 27 28 29 30 31 32 33 34 35 36 37 38 39 40 41 42 43 44 45 46 47 48 49 50
000
ASUS41 KBTV 290210
RWRBTV
VERMONT REGIONAL WEATHER ROUNDUP
NATIONAL WEATHER SERVICE BURLINGTON VT
1000 PM EDT THU MAY 28 2015

NOTE: "FAIR" INDICATES FEW OR NO CLOUDS BELOW 12,000 FEET WITH NO
SIGNIFICANT WEATHER AND/OR OBSTRUCTIONS TO VISIBILITY.

* THESE REPORTS ARE NOT UNDER NWS QUALITY CONTROL AND/OR DO NOT
  REPORT WEATHER SUCH AS PRECIPITATION AND FOG.

VTZ001>019-290300-
_____VERMONT_____


CITY           SKY/WX    TMP DP  RH WIND       PRES   REMARKS
BURLINGTON     CLOUDY    62  59  90 E3        30.25R
MONTPELIER     CLOUDY    62  55  77 W10       30.28R
MORRISVILLE    CLOUDY    64  57  78 NW6       30.26R
LYNDONVILLE*   CLOUDY    60  56  85 W5        30.25R
MIDDLEBURY*    CLOUDY    63  61  94 NW5       30.26R
RUTLAND*       CLOUDY    64  52  63 NW3       30.26R
SPRINGFIELD    PTCLDY    61  54  77 CALM      30.23R
HIGHGATE*      MOCLDY    61  60  98 CALM      30.24R
NEWPORT*       CLOUDY    60  59  96 NW3       30.24R
BENNINGTON     CLOUDY    64  54  69 W5        30.26R
SUTTON*          N/A     59 N/A N/A MISG        N/A

_____LAKE CHAMPLAIN_____


CITY           SKY/WX    TMP DP  RH WIND       PRES   REMARKS

$$

NYZ007-026>031-035-052-083-290300-
_____NORTHERN NEW YORK_____


CITY           SKY/WX    TMP DP  RH WIND       PRES   REMARKS
PLATTSBURGH    CLOUDY    66  56  70 CALM      30.24R
SARANAC LAKE   PTCLDY    49  49 100 CALM      30.29R FOG
MASSENA        PTCLDY    59  55  87 CALM      30.27R
OGDENSBURG*    CLEAR     61  55  82 SW3       30.27R
POTSDAM*       CLEAR     54  54 100 CALM      30.27R
WATERTOWN      CLEAR     56  53  90 S3        30.27R
FT DRUM        CLEAR     58  57  94 S5        30.27R
ALBANY         PTCLDY    67  53  61 NW9       30.25R
GLENS FALLS    MOCLDY    65  54  67 VRB3      30.25R

$$
NHZ002-005-011-290300-
_____NEW HAMPSHIRE_____


CITY           SKY/WX    TMP DP  RH WIND       PRES   REMARKS
LEBANON        CLOUDY    62  56  80 CALM      30.23R
KEENE          CLEAR     63  54  72 CALM      30.23R
MT WASHINGTON  LGT RAIN  45  45 100 NW39        N/A  VSB 0
PLYMOUTH         N/A     66  59  79 W16       30.20R
WHITEFIELD     CLOUDY    63  57  81 CALM      30.22R

$$

_____REGIONAL QUEBEC LOCATIONS_____


CITY           SKY/WX    TMP DP  RH WIND       PRES   REMARKS
MONTREAL       MOCLDY    64  55  72 NW8       30.26R
QUEBEC CITY    PTCLDY    59  50  72 N10       30.21R
SHERBROOKE     CLOUDY    61 N/A N/A NW10      30.21R

_____REGIONAL ONTARIO LOCATIONS_____


CITY           SKY/WX    TMP DP  RH WIND       PRES   REMARKS
OTTAWA         CLEAR     61  54  77 N6        30.28R

______KEY______
VSB  - VISIBILITY IN MILES
WCI  - WIND CHILL INDEX
HX   - HEAT INDEX
$$



USA.gov is the U.S. government's official web portal to all federal, state and local government web resources and services.